星链-33611 (STARLINK-33611)

导读

STARLINK-33611是美国SpaceX公司于2025年3月15日发射的星链卫星,属于第二代星链星座主力卫星。该星运行于低地球轨道,配备增强型相控阵天线与激光星间链路,采用氪离子推进系统,具备主动避碰与轨道机动能力。它为全球尤其是偏远地区提供高速低延迟宽带互联网服务,单星容量超100Gbps,用户终端下载速度可达1000Mbps以上,助力星链实现全球无缝覆盖。卫星设计寿命5-7年,退役后将主动离轨坠入大气层焚毁,减少空间碎片影响。

Basic Information
目录编号:
63279
目录名称:
STARLINK-33611
国际标识:
2025-053Q
轨道中心:
EARTH
卫星名称:
星链-33611
卫星全名:
星链-33611 (STARLINK-33611)
卫星状态:
在轨 (已飞行538 天)
发射日期:
2025-03-15 UTC
国别 :
美国 (US)
星等 :
--
Orbit Information
数据来源 国际轨道数据
星历时间: 2026-09-04T12:22:37+0800
13小时前
查看轨道信息
半长轴: 6861.147km
偏心率: 0.0000795
轨道倾角: 43.000°
近地点辐角 271.494°
升交点赤经 310.107°
平近点角 88.582°
近地点: 482.464km
远地点: 483.556km
周期: 94.266分钟
每日圈数: 15.275933
Detailed Information
固有亮度:
5
最大亮度:
2.5
卫星平台:
Starlink V1.0
覆盖范围:
全球
运营商:
太空探索技术公司
运营商所在国:
美国
制造商(研发单位):
太空探索技术公司
制造商所在国:
美国
使用方式:
暂无
Satellite Introduction
Starlink 计划是 SpaceX 推出的全球卫星互联网项目,通过发射低轨道卫星,为全球尤其是偏远地区提供高速、低延迟的互联网服务。自 2019 年起,Starlink 已部署数千颗卫星,旨在缩小全球数字鸿沟,推动互联网普及。该项目还为军事、航空等行业提供通信支持,带来广泛经济效益。
2D Orbit Map
3D Orbit Map
Orbit Altitude Analysis Chart
Orbit Inclination Analysis Chart
Orbit Comprehensive Analysis Chart
View Comprehensive Chart
Conjunction Data List
Event ID Objects TCA Miss Dist (km) Collision Risk Probability Collision Risk Index (CRI) Action
CDM_260907-002205-908206-327921
2026-09-07T
00:22:02+0000
0.461 km
远距离
1.481368E-4 高风险 0.78
CDM_260906-152905-611206-327921
2026-09-06T
15:29:03+0000
0.731 km
远距离
4.268195E-5 中风险 0.68
CDM_260906-212305-725806-327921
2026-09-06T
21:23:15+0000
0.848 km
远距离
3.551817E-5 中风险 0.66
CDM_260907-002006-257106-327921
2026-09-07T
00:20:03+0000
1.023 km
极远距离
1.13242E-5 中风险 0.56
CDM_260906-122206-197206-327921
2026-09-06T
12:22:47+0000
1.159 km
极远距离
7.659127E-6 低风险 0.53
CDM_260906-223205-611206-327921
2026-09-06T
22:32:44+0000
1.277 km
极远距离
6.500277E-6 低风险 0.51
CDM_260906-194905-725806-327921
2026-09-06T
19:49:06+0000
1.505 km
极远距离
5.023466E-6 低风险 0.49
CDM_260906-104806-197206-327921
2026-09-06T
10:48:37+0000
1.446 km
极远距离
3.667781E-6 低风险 0.46
CDM_260907-041506-257106-327921
2026-09-07T
04:15:27+0000
1.490 km
极远距离
3.20878E-6 低风险 0.45
CDM_260907-000806-197206-327921
2026-09-07T
00:08:55+0000
1.672 km
极远距离
2.361843E-6 低风险 0.42